Theta_e
286 288 288 288 286 285 283 283 282 282 284 287 294 295 296 297 296 299 301 301 303 302 302 299 295 294 295 294 293 293 293 292 291 291 292 292 292 292 294 295 294 295 295 295
283 287 288 286 287 287 285 284 284 283 284 290 293 295 294 295 296 295 296 298 297 298 296 298 294 291 291 291 291 291 291 290 291 291 290 290 289 290 291 291 292 293 293 294
280 284 285 283 286 287 286 286 287 283 287 290 292 296 296 296 297 297 296 296 295 294 294 292 291 291 290 290 290 290 290 290 290 290 289 289 289 289 289 288 290 290 290 291
280 282 278 286 290 290 289 289 288 287 289 293 294 297 299 300 298 298 297 296 294 293 292 292 291 291 290 290 290 290 289 289 289 289 289 288 288 287 287 287 288 288 288 289
280 279 284 287 290 289 288 289 291 290 290 292 296 297 294 300 300 300 298 297 296 294 293 291 291 291 291 290 290 289 289 288 289 289 288 288 287 286 286 286 285 287 288 287
280 279 280 287 290 293 291 284 292 293 292 294 295 290 294 299 301 300 298 297 294 293 292 292 291 291 291 289 289 289 288 289 289 289 288 287 286 285 285 284 285 287 285 285
281 280 284 291 293 292 284 287 291 293 293 294 295 296 295 301 301 301 298 296 295 294 293 293 291 292 290 289 289 290 289 289 289 289 288 287 285 284 283 283 283 282 283 283
280 279 282 293 291 288 292 291 293 293 294 296 296 295 295 300 301 299 297 296 295 294 293 292 292 292 290 289 290 289 289 289 289 288 290 287 284 282 282 282 281 281 281 281
286 286 292 294 291 294 294 294 293 294 295 297 295 295 296 298 299 299 298 297 296 295 293 291 292 293 291 291 289 289 289 288 288 287 286 284 283 281 282 281 281 281 282 281
287 290 290 293 293 292 294 294 295 295 295 297 296 296 296 296 298 298 298 297 296 295 293 291 292 293 293 289 290 290 288 287 286 286 284 283 283 283 282 281 281 282 282 282
285 289 291 293 294 295 295 295 295 295 296 297 297 296 296 295 297 299 298 298 296 295 293 293 292 292 291 291 291 290 288 287 286 285 284 282 282 282 283 281 283 282 282 282
286 293 293 294 296 295 295 296 296 296 296 297 298 297 297 296 297 298 297 297 295 295 294 294 293 292 291 292 292 290 288 287 285 285 283 283 282 282 289 288 291 291 290 285
293 295 296 294 296 296 297 296 297 296 297 296 297 297 297 296 296 299 297 296 296 295 295 294 293 292 292 292 292 291 289 287 286 285 283 282 282 282 281 287 292 292 292 291
293 295 292 294 296 295 296 297 301 297 296 297 297 297 297 296 297 297 296 297 297 296 295 294 293 293 293 293 292 291 290 292 287 284 284 283 282 282 284 284 284 283 291 289
293 295 295 296 295 296 295 295 296 296 296 296 297 297 296 295 295 297 298 296 296 295 294 294 294 294 293 293 292 291 289 289 286 284 284 285 283 282 283 283 283 283 283 288
293 293 291 294 294 295 295 295 296 297 295 295 296 296 297 297 297 296 296 295 294 294 294 294 294 295 294 293 292 290 290 292 288 284 284 284 283 283 283 283 282 282 282 282
291 288 289 290 293 294 295 297 298 298 298 295 297 297 296 296 295 295 295 296 297 297 296 295 295 295 294 293 292 290 290 290 289 284 285 284 283 283 283 283 282 282 282 283
297 296 296 297 295 293 293 295 297 296 296 297 296 295 295 294 296 295 295 294 293 293 294 295 294 293 293 292 291 290 289 289 286 285 285 284 284 284 283 283 282 281 281 283
295 296 294 296 296 296 296 295 295 296 294 294 293 293 295 295 295 295 293 293 292 291 291 292 296 294 292 292 292 290 289 287 285 285 285 286 285 284 283 283 282 282 281 282
295 294 294 294 295 294 293 293 293 293 293 293 293 292 292 293 293 293 292 293 294 294 291 292 294 290 290 293 293 289 288 286 285 284 285 285 284 283 283 284 282 282 281 281
297 295 292 291 291 292 293 292 292 292 292 293 293 292 293 292 293 292 291 291 291 292 291 295 290 288 290 292 290 288 287 285 285 285 286 284 284 283 283 283 282 282 281 281
297 291 291 290 291 290 290 291 291 291 291 291 292 292 291 291 291 291 292 292 290 295 293 290 289 291 291 293 288 287 286 286 285 285 285 284 284 283 282 282 281 281 281 280
294 294 291 291 291 292 290 290 290 291 291 291 291 291 291 291 292 290 289 289 292 294 290 288 292 295 295 287 287 286 286 286 286 285 285 284 284 283 282 280 280 280 279 278
289 290 291 291 290 289 289 288 289 290 291 291 291 291 291 289 288 290 292 294 295 292 289 291 295 296 290 287 286 286 286 286 285 284 284 285 283 281 280 280 280 280 280 281
288 288 288 289 289 290 289 289 289 289 290 289 289 290 290 290 290 289 292 292 294 290 290 297 297 293 286 286 286 286 285 284 283 283 283 282 282 282 281 281 280 280 280 281
287 288 289 290 290 289 290 291 289 289 290 288 287 289 290 290 292 291 291 291 290 292 292 294 292 286 286 286 286 285 283 284 284 283 283 282 282 281 280 280 280 282 282 282
289 291 289 288 289 290 291 291 290 289 290 290 287 288 289 290 290 289 290 289 289 290 292 291 287 286 284 284 283 283 283 283 284 283 282 282 281 281 281 282 282 282 282 281
Wind_Speed
5 5 2 4 5 8 9 6 7 6 8 7 14 15 13 8 6 7 7 7 6 6 6 4 5 5 6 6 6 6 8 9 8 8 7 7 8 8 9 9 8 8 10 9
3 3 7 6 9 9 9 4 7 4 8 8 4 8 8 10 9 9 8 7 7 6 6 7 5 6 5 6 6 7 7 7 7 9 7 7 6 7 10 6 7 8 7 8
4 1 1 7 12 15 7 6 10 10 11 6 5 13 16 15 14 13 10 9 9 9 8 6 7 6 7 6 6 7 7 6 7 7 7 6 6 8 7 6 7 7 7 7
3 1 3 7 2 6 13 6 10 5 6 10 9 13 12 14 17 14 11 10 8 7 6 7 6 6 7 6 6 7 6 7 6 7 7 6 6 6 6 4 7 6 5 6
6 5 6 5 7 9 9 9 15 17 7 5 6 6 3 11 15 17 15 11 9 8 7 7 8 7 8 7 6 7 7 7 6 7 7 6 6 6 4 5 5 4 4 5
3 5 9 7 3 5 5 7 8 14 10 10 8 5 8 15 15 12 11 10 10 10 7 9 8 9 10 8 7 7 7 7 7 7 7 7 6 6 2 3 5 4 4 3
4 4 9 7 5 5 6 10 6 11 9 13 10 7 4 14 14 14 14 13 9 11 12 12 10 11 10 8 10 7 6 7 6 6 7 7 6 2 4 5 6 4 5 3
3 3 9 9 5 10 9 2 6 7 9 14 6 8 6 10 14 14 13 12 13 12 11 9 11 11 10 11 8 7 7 7 7 6 5 5 7 4 4 6 6 4 5 3
13 11 3 11 3 8 5 6 6 9 9 11 10 8 9 8 11 15 16 14 14 14 12 9 12 12 12 9 9 8 8 7 7 6 6 6 6 6 4 5 5 4 4 3
5 8 10 9 5 3 6 4 5 6 8 10 9 10 9 8 10 12 13 14 14 13 13 12 12 13 12 10 10 11 9 8 7 7 6 5 4 4 5 5 4 4 4 4
5 5 2 8 11 8 6 4 4 4 8 13 9 9 9 8 10 12 12 12 14 16 15 15 14 13 9 13 13 11 10 8 7 5 6 5 4 4 4 3 5 5 4 4
7 10 7 8 14 10 9 10 9 9 6 6 10 11 9 8 8 10 12 12 12 14 13 13 14 14 12 14 15 13 10 8 7 6 5 5 5 3 6 6 9 8 9 6
7 7 9 3 6 11 17 10 10 10 9 10 7 8 8 7 8 11 9 12 14 17 15 13 14 14 14 15 15 15 13 11 8 8 7 6 5 5 5 5 10 10 10 9
3 8 3 4 7 11 9 12 10 6 5 6 8 5 6 7 7 11 14 16 14 13 12 14 15 16 15 16 16 15 12 21 10 8 8 7 7 5 5 6 6 3 8 6
9 7 7 6 7 8 5 8 9 10 8 7 8 9 8 9 9 12 9 9 10 11 12 14 15 14 15 17 17 16 12 10 9 8 7 9 7 6 5 5 5 4 1 6
9 8 4 6 10 9 9 8 11 14 8 7 9 9 11 9 8 7 8 10 12 13 15 15 15 15 17 18 17 13 12 19 15 9 8 7 7 7 6 6 5 5 4 4
7 4 4 4 8 9 12 11 13 14 12 9 14 11 8 8 6 7 8 11 13 11 14 16 17 14 17 18 18 12 10 11 17 8 8 8 7 7 6 6 5 5 4 5
13 10 17 16 12 9 7 10 11 8 10 13 8 8 8 9 12 11 10 8 6 5 9 11 9 13 15 16 15 11 11 11 10 10 8 8 7 6 6 6 5 5 3 4
15 15 11 15 12 12 10 10 10 12 7 9 9 10 11 10 9 7 8 9 8 8 8 9 19 18 15 17 16 10 10 11 9 8 8 11 8 6 6 6 5 5 5 4
17 13 10 11 9 9 9 8 9 8 7 9 7 7 8 8 8 8 8 12 13 6 11 11 15 12 12 18 20 10 11 12 11 9 8 7 7 7 6 8 6 5 5 5
24 16 11 10 10 10 9 8 9 9 9 8 9 9 10 7 7 9 8 6 7 9 11 20 11 9 9 15 13 11 11 11 10 9 9 7 8 7 6 6 5 5 5 5
16 9 9 10 10 10 9 8 9 7 8 8 8 6 7 7 7 5 2 5 6 17 11 9 9 18 14 22 9 11 10 11 9 8 8 8 7 7 6 6 6 5 4 4
12 12 11 12 13 11 9 9 9 9 9 9 9 9 7 5 7 7 5 4 8 13 9 8 17 24 26 9 10 10 11 11 9 9 8 7 7 7 6 6 5 5 4 4
7 8 11 8 8 7 9 7 7 7 7 6 6 9 11 8 4 4 7 14 18 16 10 13 20 28 19 10 10 10 9 9 8 8 7 10 6 5 5 5 5 4 4 6
5 5 7 8 9 8 7 8 8 7 8 8 8 6 8 4 5 6 8 9 20 13 11 23 27 25 9 10 10 10 9 8 8 8 7 7 6 6 5 5 5 5 4 4
6 5 4 6 6 6 7 7 8 7 9 8 6 5 6 6 9 10 9 12 10 14 11 13 11 9 9 10 11 10 10 9 9 7 8 7 6 6 5 5 4 4 4 4
6 8 5 5 4 6 7 9 11 8 8 9 9 5 8 8 10 11 13 10 9 9 10 9 7 7 5 7 8 9 9 8 10 8 7 6 6 5 5 5 5 4 4 4
Wind_Direction
236 231 189 197 187 181 191 183 171 234 211 225 202 198 199 196 190 199 195 182 181 161 144 122 102 85 86 80 81 80 79 85 83 79 72 73 66 69 71 68 77 87 92 83
279 225 206 236 224 209 215 206 258 241 253 211 192 123 162 192 187 203 203 199 177 175 161 158 141 126 109 101 95 94 96 99 97 86 80 82 94 89 82 82 76 75 69 81
253 14 154 284 221 201 190 202 190 212 225 159 172 187 187 187 193 198 203 196 183 179 174 161 156 148 138 129 112 100 101 91 89 95 94 89 85 88 101 98 89 74 74 78
174 45 240 238 155 187 198 221 203 212 193 187 190 203 184 189 185 195 194 190 189 170 159 157 147 137 127 128 123 119 115 114 112 111 109 109 105 103 99 89 97 103 96 88
149 194 289 268 190 162 167 261 195 210 190 177 106 84 237 192 191 194 191 188 184 172 157 153 156 149 138 135 136 135 144 141 138 132 129 132 127 130 116 118 110 115 127 110
153 169 206 236 189 155 115 291 204 185 168 151 133 151 230 183 187 188 185 174 164 160 146 155 166 151 149 156 155 166 167 163 154 150 147 149 148 145 119 108 110 120 113 113
166 217 283 231 172 167 105 234 163 170 157 159 181 190 188 166 178 179 175 172 156 159 175 178 159 158 165 163 182 176 154 147 150 153 147 145 135 98 114 106 104 103 108 85
118 129 265 159 89 163 210 173 160 155 164 183 179 142 137 165 167 166 167 165 169 169 178 168 165 168 169 184 172 155 151 149 150 148 148 146 138 124 123 124 122 130 131 112
180 201 232 205 157 212 180 154 180 163 179 179 158 179 158 166 168 174 172 172 175 177 174 171 176 181 180 186 154 149 147 155 155 152 144 147 140 141 131 144 144 161 163 165
117 218 221 216 239 256 197 212 172 172 165 162 172 166 177 163 168 173 173 176 173 170 178 182 186 188 191 159 158 157 160 160 155 153 156 157 147 152 147 158 161 165 173 182
252 271 64 248 223 207 203 215 161 147 164 187 160 176 168 175 175 179 177 173 174 180 185 189 179 184 168 166 161 165 163 161 160 163 161 159 163 169 172 201 174 169 187 173
199 207 178 218 201 171 177 199 197 171 169 184 177 181 168 181 179 169 173 171 180 186 185 184 179 179 171 169 169 163 164 166 172 160 157 156 147 125 202 187 191 185 172 166
196 175 192 72 186 177 197 192 195 192 191 172 189 173 172 171 173 172 171 177 186 189 186 175 179 182 178 171 170 172 172 170 170 164 162 157 153 154 154 175 167 167 168 176
159 108 102 164 205 179 186 193 179 194 198 180 173 148 166 171 149 173 182 191 185 181 179 176 178 187 178 172 173 174 172 175 169 165 166 163 164 165 159 165 173 188 191 174
192 200 178 189 126 187 148 132 164 201 183 176 180 177 174 176 185 201 191 175 175 176 178 180 185 188 173 172 175 173 167 169 165 163 165 170 159 157 167 164 180 180 182 219
216 215 174 182 188 170 163 179 189 213 173 186 182 184 203 195 193 185 158 151 158 190 190 187 190 182 173 173 173 171 172 170 163 160 166 164 164 166 172 182 183 184 192 192
159 178 179 217 198 187 195 193 196 203 205 168 195 198 170 184 168 179 188 184 196 196 189 188 196 170 170 174 172 171 165 163 163 156 164 165 165 170 171 175 181 183 190 188
224 193 201 205 195 185 195 198 200 187 189 202 165 151 171 177 204 200 198 174 163 161 185 192 162 160 167 171 169 162 161 158 154 159 154 159 166 163 166 175 176 176 175 200
225 220 191 201 200 201 201 195 193 199 165 162 151 184 196 201 202 198 141 156 172 182 210 165 164 159 167 170 158 154 152 146 145 148 157 162 161 157 164 171 172 174 172 182
223 214 196 196 191 166 180 190 184 189 184 160 173 168 195 210 183 158 153 184 196 192 140 153 159 159 158 165 155 145 147 149 150 149 150 150 152 160 167 175 167 170 175 182
225 220 194 176 185 186 188 181 170 194 196 181 177 197 205 198 157 145 142 176 196 152 147 152 148 138 142 147 148 147 147 143 140 143 151 149 156 162 164 164 168 170 179 181
217 184 183 174 173 187 191 178 182 183 177 184 197 177 144 153 146 129 120 175 137 145 142 144 142 151 155 150 142 136 134 136 134 139 144 158 158 162 165 167 170 172 176 179
197 197 181 183 187 191 178 182 184 181 182 180 184 172 167 164 158 144 166 174 142 151 137 140 154 153 144 132 134 134 137 139 144 153 154 155 158 160 162 163 166 165 173 176
185 176 192 178 141 137 176 195 176 177 179 167 147 141 140 126 70 66 113 140 142 136 133 143 150 148 142 135 135 137 138 139 145 143 142 152 148 145 146 157 168 171 170 184
170 145 133 142 169 191 153 139 123 119 109 101 103 106 108 88 140 149 125 131 138 127 136 151 151 145 133 135 142 142 139 142 145 143 144 145 151 152 153 162 165 170 176 183
153 162 157 166 155 137 134 137 128 126 127 109 79 88 93 94 107 114 120 130 129 131 135 144 144 143 148 148 145 140 137 139 144 142 143 147 144 147 157 161 166 176 174 182
100 109 112 93 82 119 125 134 131 131 122 122 115 106 106 113 115 116 122 120 119 123 128 125 120 120 108 120 122 128 131 132 142 138 137 139 146 153 157 165 168 168 167 178